Location: Borgonuova
(44.4333°N, 11.2833°E)
Time: 04:25:08
(UTC+00:00)

Daily predictions for brighter satellites

Satellite Brightness Start Highest point End
(mag) Time Altitude Azimuth Time Altitude Azimuth Time Altitude Azimuth
Cosmos 1674 Rocket 4.0 00:06:25 49° E 00:06:30 50° E 00:10:42 10° NNE
Cosmos 2322 Rocket 3.3 00:05:15 27° W 00:07:18 35° NW 00:12:27 10° N
USA 267 4.4 00:10:32 24° WSW 00:10:32 24° WSW 00:14:32 10° WNW
Cosmos 1818 3.5 00:06:02 10° NW 00:11:31 90° NE 00:12:49 54° SE
Cosmos 1242 Rocket 3.3 00:08:16 10° N 00:11:04 51° N 00:11:04 51° N
ATLAS CENTAUR R/B 2.1 00:09:53 10° NNW 00:14:45 62° NE 00:16:20 39° ESE
USA 290 4.2 00:16:07 25° ENE 00:16:07 25° ENE 00:17:57 10° NE
Cosmos 2151 Rocket 3.4 00:11:21 10° N 00:15:46 83° E 00:15:52 82° ESE
EO 1 Delta rocket 4.0 00:15:35 10° NNE 00:20:09 61° E 00:20:51 54° SE
Cosmos 372 Rocket 4.1 00:19:41 52° WSW 00:20:29 59° WNW 00:25:36 10° NNE
ADEOS Rocket 4.2 00:20:35 23° W 00:20:47 23° W 00:25:11 10° NW
SL-14 R/B 4.3 00:20:59 36° E 00:21:05 36° E 00:24:40 10° NNE
Okean 2 Rocket 3.0 00:17:02 10° NNW 00:21:33 75° W 00:21:36 75° WSW
Meteor 1-16 Rocket 4.5 00:18:03 10° N 00:23:59 71° ENE 00:26:15 39° SSE
SL-08 R/B 4.4 00:18:17 10° NNW 00:24:30 73° W 00:26:13 49° SSW
Cosmos 1378 Rocket 3.4 00:25:44 75° SE 00:25:58 78° E 00:30:23 10° NNE
GP-B 3.7 00:22:15 10° NNE 00:26:34 47° E 00:27:22 42° ESE
Cosmos 1953 2.9 00:22:58 10° N 00:26:54 50° ENE 00:27:20 47° ESE
Cosmos 371 Rocket 4.5 00:25:59 29° SE 00:26:56 32° ESE 00:31:14 10° NE
Cosmos 1844 Rocket 3.5 00:22:35 10° NW 00:27:18 33° W 00:27:18 33° W
Cosmos 1844 4.3 00:23:22 10° NW 00:28:45 40° WSW 00:28:57 40° WSW
Cosmos 1937 Rocket 4.5 00:29:41 31° W 00:31:04 36° WNW 00:35:56 10° N
Cosmos 1417 Rocket 4.4 00:29:51 48° SSW 00:31:44 82° W 00:38:00 10° N
USA 32 4.5 00:30:50 39° SE 00:32:27 55° E 00:37:35 10° NNE
Cosmos 1758 4.0 00:30:16 10° NNW 00:33:27 41° WNW 00:33:27 41° WNW
NOSS 3-1 (A) 4.4 00:27:41 10° NNW 00:35:04 65° NE 00:43:46 10° SE
CZ-4 R/B 4.3 00:31:12 10° NNE 00:35:43 48° E 00:36:42 41° SE
Cosmos 1674 3.4 00:36:19 43° NW 00:36:19 43° NW 00:39:28 10° N
Sich 1 Rocket 4.3 00:32:00 10° NNW 00:35:48 39° W 00:35:48 39° W
Resurs 1-4 Rocket 2.5 00:32:33 10° NNE 00:37:42 53° E 00:39:18 39° SSE
Okean 2 4.1 00:39:06 40° WNW 00:39:06 40° WNW 00:42:51 10° N
Cosmos 1707 4.3 00:40:54 24° WNW 00:40:54 24° WNW 00:43:54 10° NNW
Cosmos 2219 Rocket 2.3 00:39:12 46° WSW 00:40:44 65° WNW 00:46:19 10° NNE
NOSS 0 Rocket 4.5 00:38:49 35° SSE 00:40:59 49° ESE 00:46:59 10° NE
CZ-4C R/B 3.2 00:34:31 10° NW 00:41:48 75° NE 00:50:20 10° SE
SL-16 R/B 4.4 00:38:52 10° W 00:42:30 17° NW 00:46:08 10° N
Cosmos 220 Rocket 3.7 00:44:38 75° WSW 00:44:56 80° WNW 00:49:09 10° NNE
COSMOS 2428 2.6 00:44:03 49° SSW 00:45:41 83° WNW 00:51:25 10° NNE
Cosmos 1437 Rocket 2.6 00:42:47 10° N 00:46:35 82° E 00:46:35 82° E
NOSS 3-1 (C) 4.0 00:39:03 10° NW 00:46:37 77° WSW 00:55:29 10° SSE
ATLAS 3B R/B 4.0 00:42:55 10° WNW 00:48:39 25° WSW 00:48:51 25° WSW
MOS 1 Rocket 4.4 00:46:53 18° SE 00:49:31 36° ENE 00:53:26 10° N
Cosmos 1709 Rocket 4.0 00:45:41 10° N 00:51:52 78° E 00:55:03 30° SSE
MOZ.5/SAFIR/RUBIN 5/SL-8 3.9 00:53:59 50° WSW 00:54:26 52° W 00:59:04 10° NNW
Cosmos 1626 3.3 00:55:39 31° WNW 00:55:39 31° WNW 00:58:41 10° N
Meteor 2-12 Rocket 4.3 00:49:21 10° N 00:55:28 88° W 00:58:14 35° S
S3M 4.1 00:54:26 40° SSW 00:56:47 66° W 01:03:10 10° N
Cosmos 2237 Rocket 2.8 00:57:20 32° SSE 00:59:35 48° ESE 01:05:02 10° NE
ADEOS II 2.7 01:01:04 10° NNE 01:06:12 50° E 01:08:46 27° SSE
Cosmos 1025 Rocket 4.0 01:05:05 27° SE 01:06:54 40° E 01:10:58 10° NNE
Cosmos 2150 Rocket 3.9 01:06:08 43° SSW 01:07:55 84° ESE 01:13:07 10° NNE
Cosmos 405 Rocket 3.5 01:10:48 35° WNW 01:10:51 35° WNW 01:14:18 10° N
Lacrosse 5 4.2 01:09:16 10° SE 01:10:59 12° ESE 01:12:43 10° E
Cosmos 1300 2.5 01:07:31 10° N 01:11:20 83° W 01:11:51 64° S
Okean 1 Rocket 3.5 01:12:03 10° NNW 01:16:14 43° W 01:16:47 41° WSW
Cosmos 2360 Rocket 4.2 01:13:37 11° W 01:17:16 18° NW 01:21:09 10° N
IDEFIX/ARIANE 42P 3.1 01:12:44 10° NNE 01:17:54 53° E 01:20:54 24° SSE
ATLAS 5 CENTAUR R/B 2.9 01:10:35 10° NW 01:19:09 40° WSW 01:19:49 38° SW
Cosmos 1461 2.8 01:17:27 10° NW 01:21:36 70° WSW 01:23:29 32° SSE
Meteor 2-10 Rocket 3.6 01:18:03 10° NNW 01:23:50 83° W 01:27:14 25° S
Cosmos 332 Rocket 4.1 01:24:05 31° S 01:26:15 59° ESE 01:30:58 10° NNE
CZ-2D R/B 2.3 01:22:52 10° N 01:28:12 59° WNW 01:30:34 32° SW
Cosmos 2278 Rocket 2.1 01:23:40 10° NNW 01:29:22 77° WSW 01:34:20 14° SSE
Meteor 2-5 Rocket 3.9 01:27:36 24° S 01:31:13 73° E 01:36:57 10° NNE
SME Rocket 4.1 01:32:57 26° W 01:32:57 26° W 01:36:25 10° NW
Cosmos 1867 4.0 01:30:59 28° WSW 01:33:43 54° NW 01:39:07 10° NNE
USA 305 3.6 01:33:23 33° S 01:34:31 41° SE 01:38:27 10° ENE
Meteor 1-24 Rocket 4.0 01:31:03 21° S 01:34:53 67° E 01:40:25 10° NNE
Cosmos 2333 Rocket 3.9 01:33:18 13° W 01:36:48 22° NW 01:41:10 10° N
Cosmos 1125 Rocket 3.9 01:37:42 29° SW 01:40:01 50° WNW 01:45:06 10° NNE
SL-16 R/B 2.7 01:37:47 24° SSW 01:41:25 54° W 01:47:31 10° NNW
YAOGAN 11 4.3 01:39:55 33° SSW 01:41:38 53° W 01:46:01 10° NNW
SL-16 R/B 3.4 01:38:15 14° SSE 01:42:34 36° ESE 01:47:41 10° NE
ERBS 3.7 01:42:06 21° SE 01:42:35 22° SE 01:45:03 10° ENE
Cosmos 1943 Rocket 3.4 01:40:51 10° NNW 01:46:17 44° ENE 01:51:41 10° SE
CRYOSAT 2 4.3 01:43:58 20° S 01:47:18 86° W 01:52:13 10° N
EO 1 Del DPAF 2.9 01:43:51 10° N 01:47:23 75° WNW 01:48:38 37° SSW
USA 290 4.4 01:48:51 14° WNW 01:49:33 15° WNW 01:51:31 10° NNW
Cosmos 1980 3.8 01:46:55 26° SW 01:50:05 66° WNW 01:55:44 10° NNE
ATLAS CENTAUR R/B 3.3 01:49:46 10° WNW 01:52:17 18° W 01:52:17 18° W
AQUA 4.3 01:52:33 10° N 01:57:05 45° WNW 01:59:34 24° SW
USA 229 DEB 4.0 01:52:09 10° NW 01:59:27 60° WSW 02:07:09 10° SSE
USA 229 4.0 01:52:15 10° NW 01:59:32 61° WSW 02:07:15 10° SSE
OE (NEXTSAT) 4.1 01:57:23 14° WNW 02:00:10 83° SSW 02:03:29 10° ESE
Cosmos 1455 Rocket 3.5 01:56:33 10° NNW 02:00:46 43° W 02:03:00 24° SSW
Cosmos 1953 4.4 02:00:52 10° WNW 02:02:44 13° W 02:02:56 13° W
IRS-1D 3.7 01:57:41 10° NNE 02:03:04 81° ESE 02:07:26 16° S
Helios 1A 3.3 02:02:52 22° SSW 02:05:12 46° W 02:09:17 10° NNW
Cosmos 1536 Rocket 4.0 02:01:35 13° S 02:05:27 62° E 02:09:50 10° NNE
Lacrosse 5 rocket 3.7 02:05:09 10° SSE 02:07:07 14° ESE 02:09:08 10° E
MSX 3.8 02:01:24 10° NNE 02:07:11 79° WNW 02:11:47 17° SSW
Cosmos 371 Rocket 4.4 02:04:37 19° WSW 02:07:18 32° WNW 02:11:40 10° N
ALOS 3.9 02:07:50 10° NNE 02:11:59 31° E 02:16:05 10° SSE
Meteor 1-28 Rocket 4.0 02:10:52 24° SW 02:12:18 32° W 02:15:42 10° NNW
Cosmos 1975 Rocket 4.1 02:11:28 20° WSW 02:13:37 31° WNW 02:17:35 10° N
USA 306 2.8 02:13:37 22° SW 02:16:15 83° SE 02:20:26 10° NE
USA 307 2.9 02:13:44 22° SW 02:16:20 73° SE 02:20:32 10° ENE
Resurs 1-4 Rocket 3.6 02:13:07 10° NNW 02:17:09 23° WNW 02:20:23 13° WSW
Cosmos 1271 Rocket 3.3 02:16:54 10° N 02:20:38 57° ENE 02:24:23 10° SSE
COSMOS 2441 4.5 02:20:04 10° N 02:24:55 63° WNW 02:28:59 14° SSW
Helios 1B rocket 2.6 02:21:19 10° NNE 02:25:24 71° ESE 02:29:26 10° S
Cosmos 2219 Rocket 4.4 02:23:11 10° WNW 02:25:50 13° NW 02:28:30 10° NNW
Cosmos 2074 Rocket 4.2 02:19:56 10° NNW 02:26:04 55° W 02:32:10 10° SSW
NOSS 3 (A) 2.8 02:27:12 55° WSW 02:27:24 68° NW 02:29:02 10° NNE
MOS 1 Rocket 4.5 02:26:10 17° SW 02:27:53 21° W 02:31:08 10° NW
Cosmos 2228 3.6 02:24:36 10° N 02:28:57 61° E 02:33:15 10° SSE
FALCON 9 R/B 4.4 02:09:20 10° W 02:29:35 35° SW 02:36:16 10° SSE
CZ-4C R/B 3.8 02:23:40 10° NW 02:30:09 31° WSW 02:37:19 10° S
SeaSat 1 3.3 02:25:59 10° NE 02:30:45 45° ESE 02:35:27 10° S
Cosmos 2184 Rocket 4.3 02:27:53 10° NNW 02:33:54 49° W 02:39:51 10° SSW
CZ-2C R/B 3.3 02:29:36 10° NNE 02:34:40 52° E 02:39:36 10° S
Cosmos 1269 Rocket 4.3 02:33:24 10° NNW 02:38:29 49° WSW 02:43:31 10° S
Cosmos 1455 2.9 02:39:09 10° NNW 02:42:31 33° W 02:45:51 10° SSW
Cosmos 2237 Rocket 3.4 02:39:10 11° WSW 02:43:52 29° NW 02:48:49 10° N
ADEOS II 3.5 02:41:25 10° N 02:45:31 24° WNW 02:49:38 10° WSW
USA 308 3.0 02:42:41 12° WSW 02:46:27 70° NW 02:50:39 10° NE
Cosmos 1703 3.2 02:42:43 10° SSW 02:46:39 76° W 02:50:37 10° N
BREEZE-M DEB (TANK) 4.2 02:38:09 10° W 02:46:43 48° NNW 02:49:46 10° ENE
Cosmos 2084 Rocket 3.1 02:43:24 13° SW 02:46:47 79° NW 02:50:36 10° NE
Lacrosse 5 2.1 02:48:06 10° SW 02:53:07 69° SE 02:58:11 10° NE
Cosmos 2297 3.7 02:49:20 10° NNW 02:55:05 73° WSW 03:00:47 10° SSE
IDEFIX/ARIANE 42P 4.0 02:53:03 10° NNW 02:57:06 23° WNW 03:01:09 10° WSW
PAYLOAD A 3.9 02:52:40 10° NNE 02:57:23 83° ESE 03:02:08 10° SSW
Cosmos 614 Rocket 3.9 02:53:33 10° NNW 02:58:44 73° WSW 03:03:54 10° SSE
DELTA 2 DEB (DPAF) 4.1 02:57:08 10° SSE 03:01:33 84° WSW 03:06:01 10° NNW
Cosmos 962 Rocket 4.5 02:56:26 10° NNW 03:02:34 74° W 03:08:39 10° S
Cosmos 1892 Rocket 4.2 02:59:04 10° S 03:03:25 59° E 03:07:49 10° NNE
SL-24 DEB 4.3 02:59:08 10° S 03:03:54 76° W 03:08:39 10° N
CZ-3 R/B 4.3 02:26:25 10° WSW 03:04:02 44° S 03:14:27 10° ESE
Cosmos 1484 Rocket 4.3 03:01:14 10° NNE 03:04:47 36° E 03:08:22 10° SSE
Cosmos 292 Rocket 3.8 03:00:08 10° SSW 03:04:57 80° WNW 03:09:48 10° NNE
